RH
13 12 16 18 15 14 10 10 10 11 12 12 12 15 15 12 11 12 35 75 91 43 16 12 18 20 27 21 14 24 15 20 21 15 28 30 22 30 75 97 100 100 61 47
11 18 20 15 14 14 14 11 12 11 13 14 13 13 13 15 11 12 44 71 97 74 54 15 18 22 24 28 17 24 15 20 20 16 16 30 33 26 25 38 81 79 46 49
13 23 15 14 14 14 14 14 14 13 11 14 15 10 15 12 13 13 12 45 91 86 61 20 16 16 20 28 16 22 14 18 21 18 18 20 23 30 38 30 31 44 86 67
16 18 15 14 14 15 15 19 14 12 11 12 16 17 12 14 15 14 11 22 91 100 99 53 17 17 18 26 17 23 17 15 20 17 18 22 21 22 23 45 72 77 55 56
19 19 17 18 20 20 30 19 17 13 12 11 13 15 15 15 14 18 12 15 20 82 100 61 18 20 19 23 17 16 20 15 16 17 17 20 22 19 19 21 23 63 56 33
19 19 15 17 16 15 28 17 17 14 12 11 14 15 20 18 14 14 13 15 15 23 90 86 42 18 26 23 18 13 20 15 15 16 17 19 19 19 18 18 19 20 20 32
22 22 18 15 15 17 18 17 16 13 12 14 19 20 20 20 15 11 11 14 14 16 86 88 73 49 14 22 23 13 19 14 14 15 17 17 18 19 19 19 22 37 23 20
16 23 27 23 19 22 29 32 26 24 20 22 28 21 24 21 16 10 10 11 13 17 30 66 52 92 15 21 24 18 20 16 15 16 17 17 17 18 19 20 25 26 19 18
15 23 28 24 30 25 28 26 29 31 24 26 28 24 26 22 18 10 9 9 18 23 18 69 50 87 10 11 22 21 20 20 16 19 20 17 17 18 20 21 20 19 17 16
13 19 26 29 28 26 28 31 28 22 24 25 24 28 29 22 19 12 10 9 16 18 23 20 25 24 12 8 16 20 20 26 17 18 23 21 18 19 19 19 19 16 14 14
11 14 26 31 29 27 26 26 24 24 24 26 28 29 36 24 21 15 13 12 11 16 16 20 24 22 15 10 10 16 20 33 19 18 21 30 20 18 19 19 17 15 15 20
11 12 19 24 33 35 29 29 28 26 27 26 27 34 27 24 24 19 15 12 10 10 11 24 24 25 21 12 15 10 17 34 24 19 21 29 22 18 18 16 15 16 17 22
12 10 18 20 25 28 27 28 29 31 30 27 30 35 28 32 27 19 14 10 10 12 15 25 26 29 30 18 22 16 13 38 32 20 21 28 22 18 16 16 16 16 21 24
10 9 17 17 21 25 27 24 26 25 26 30 31 28 30 32 26 19 11 9 9 14 10 25 37 34 35 29 18 20 13 18 45 26 21 25 27 20 18 18 18 17 19 43
8 12 16 16 17 20 22 23 20 20 29 27 35 29 28 25 26 20 11 10 9 10 22 13 38 38 38 35 16 21 14 16 24 48 28 22 22 26 24 22 25 24 18 52
9 14 15 17 19 20 20 21 23 20 26 33 34 29 25 25 24 20 12 10 9 9 11 19 29 45 40 38 24 20 20 20 21 29 50 36 31 22 24 28 40 56 66 73
11 14 19 20 20 21 22 21 24 26 30 35 32 27 23 23 22 20 16 12 10 9 9 11 16 42 47 42 34 17 24 23 26 27 37 48 52 45 38 43 46 36 33 50
12 16 22 21 22 22 21 22 24 31 31 34 32 27 23 22 21 19 16 14 10 8 9 11 13 34 49 45 39 30 18 25 19 21 23 26 39 42 42 39 34 22 22 28
12 19 25 23 25 24 23 23 27 34 32 30 31 28 22 21 19 18 17 17 12 11 11 11 11 21 36 45 47 42 34 19 22 26 23 23 25 22 22 27 25 22 29 34
14 21 25 22 28 27 21 24 24 34 34 33 31 26 22 19 17 18 18 19 14 12 12 12 11 12 37 50 51 50 43 38 31 17 15 16 17 18 19 20 25 30 32 30
15 23 26 22 27 26 22 24 27 31 34 35 36 27 23 21 18 19 20 22 16 13 13 13 12 13 15 40 56 57 74 67 43 38 32 20 16 15 15 17 19 20 19 19
17 25 24 23 26 27 28 38 28 30 28 32 34 31 24 22 24 23 23 25 24 18 17 18 15 12 13 15 40 50 61 75 86 97 82 56 39 33 31 29 28 30 35 39
15 26 25 28 26 23 29 35 23 23 31 32 37 39 29 24 28 27 26 27 43 33 28 26 21 15 15 16 16 41 50 51 50 47 50 57 51 45 43 41 41 41 43 43
15 25 24 25 26 24 26 28 73 23 33 38 35 37 32 24 28 29 29 32 42 53 39 38 31 26 25 20 18 19 28 44 49 48 50 51 53 54 52 50 46 46 47 45
15 24 27 27 28 28 31 30 39 47 28 39 40 41 36 27 27 30 31 48 43 47 54 48 53 32 28 36 36 30 22 21 25 35 42 44 45 45 45 46 44 44 42 39
14 26 29 32 31 34 39 38 40 84 95 26 40 49 50 33 29 32 36 56 71 60 39 71 65 64 34 34 35 35 33 28 25 22 23 26 27 30 32 31 30 30 30 28
Wind_Speed
60 56 50 53 51 52 51 46 39 34 32 30 31 23 23 24 19 16 16 10 9 8 2 11 13 12 12 7 12 16 18 21 19 21 24 25 25 27 24 24 19 13 20 15
63 53 62 61 57 54 48 48 41 40 37 34 33 30 24 28 24 19 14 12 10 10 3 8 15 16 14 11 13 17 20 23 24 22 24 25 25 24 24 23 20 18 16 13
67 69 69 65 62 58 50 46 46 48 44 39 38 36 31 32 30 25 23 19 12 10 8 8 16 19 17 15 13 18 20 23 26 24 26 25 24 23 20 19 18 16 15 13
72 77 70 66 62 59 54 53 53 56 49 44 41 38 37 31 31 31 29 24 24 13 13 9 14 20 21 18 19 24 24 25 27 27 27 26 24 21 20 17 15 16 14 11
71 79 76 68 63 62 59 60 56 59 53 51 46 45 36 32 29 36 35 33 30 27 18 15 17 21 23 21 21 26 28 29 29 28 28 26 24 22 19 17 15 14 12 10
82 87 80 70 76 71 72 66 63 63 56 50 47 43 40 30 35 40 37 36 33 30 21 19 22 23 21 25 24 30 32 32 31 30 27 27 26 22 19 17 16 15 13 11
88 85 82 81 80 74 76 73 67 62 53 42 48 42 42 38 41 42 38 37 35 31 30 26 29 21 30 29 24 29 30 33 33 30 29 27 26 24 20 17 17 15 12 9
94 94 84 81 80 77 74 71 63 56 50 47 54 39 51 49 43 41 37 35 35 31 35 25 31 20 26 31 30 30 32 35 32 30 29 28 26 24 22 20 17 15 12 11
99 93 93 90 86 84 80 69 70 66 60 58 54 54 58 49 45 40 36 33 36 37 36 37 31 27 25 30 33 29 36 37 36 33 31 28 26 24 24 23 20 17 14 11
103 95 95 89 93 89 77 80 75 65 61 58 55 57 55 53 52 46 39 35 42 41 41 42 36 31 28 29 33 33 38 42 40 38 33 28 27 28 26 24 21 19 15 13
104 97 97 101 95 81 80 75 72 73 69 61 60 57 63 59 55 50 41 41 46 48 44 43 37 33 31 27 32 36 39 45 46 41 36 32 31 30 28 26 24 21 17 14
102 101 106 100 85 84 86 83 81 73 63 59 60 66 63 57 50 45 40 39 45 49 46 44 42 36 30 26 32 39 40 48 48 44 39 36 35 31 29 27 23 22 19 16
101 102 105 98 96 95 91 80 74 70 70 63 61 68 57 54 50 47 45 41 43 52 51 49 45 41 34 29 32 42 43 47 50 49 44 40 37 34 31 29 26 24 22 20
102 101 103 103 98 95 85 77 70 67 66 64 62 64 55 52 50 49 48 45 46 51 51 54 49 45 38 33 33 39 42 44 51 51 48 43 39 36 34 34 31 29 26 26
103 95 101 104 100 93 83 77 75 67 62 60 73 64 58 56 55 54 52 51 46 50 56 54 54 50 43 38 35 36 42 42 48 50 49 44 41 40 38 36 33 32 31 31
100 99 93 93 97 91 84 79 77 73 68 67 74 68 62 61 59 57 55 49 48 48 55 60 58 54 47 42 37 35 40 42 46 50 47 44 43 42 40 38 37 37 36 34
100 97 91 92 98 93 88 86 82 75 77 76 77 72 67 67 62 58 56 49 46 44 49 56 59 56 51 47 41 37 39 41 45 46 45 46 44 42 39 38 38 35 35 35
94 93 93 95 98 96 91 89 81 81 85 79 78 80 76 71 65 58 53 43 42 42 44 49 59 60 58 52 44 38 37 40 43 43 42 42 42 40 39 39 38 37 37 37
94 95 98 99 95 93 94 92 88 84 83 83 83 80 72 68 60 55 47 40 43 44 43 47 54 62 60 55 50 45 41 40 42 44 45 46 44 42 41 40 41 39 38 37
97 97 97 97 97 97 98 95 93 86 85 86 88 84 76 69 61 52 45 43 45 44 42 43 48 56 61 60 55 50 47 45 43 43 45 43 40 40 40 37 37 37 39 37
95 96 100 100 99 97 96 93 96 95 90 87 89 85 74 61 52 48 44 46 46 46 43 41 45 52 58 60 60 57 53 52 51 48 45 42 42 41 40 40 41 41 41 40
93 98 99 96 98 96 94 95 96 92 85 83 84 84 66 52 50 46 47 46 48 49 44 39 40 46 54 60 59 59 58 56 54 51 46 44 43 40 40 41 39 40 41 41
92 97 99 100 97 91 93 91 95 88 87 86 84 83 66 57 54 52 49 48 47 49 44 40 39 42 49 53 58 60 59 58 57 53 49 49 50 50 50 47 46 46 46 46
90 96 97 95 93 92 93 94 91 92 89 89 88 83 71 64 59 56 55 52 52 51 48 43 41 41 40 45 52 57 61 62 62 60 57 55 54 54 53 52 51 49 50 50
88 92 93 93 90 92 93 93 93 92 91 93 87 83 76 68 65 60 58 59 59 59 54 50 46 45 42 39 40 44 52 57 61 63 63 62 62 61 59 56 55 55 54 54
77 91 96 98 97 95 93 90 90 89 90 95 90 86 80 74 71 70 67 65 65 65 63 59 55 52 47 45 44 44 44 43 45 49 52 55 58 62 60 58 56 53 51 49
Wind_Direction
233 234 236 233 233 235 239 242 243 249 252 249 251 246 248 261 258 269 288 276 278 285 335 221 208 190 155 165 185 169 165 162 158 155 152 155 156 153 149 145 154 150 133 126
233 233 235 234 236 239 240 242 245 243 246 240 241 238 241 255 254 261 258 252 271 240 281 206 212 207 170 167 198 184 173 170 163 162 159 159 160 159 155 150 149 143 138 130
230 235 233 233 235 239 239 240 242 241 239 237 239 243 245 245 263 262 264 256 227 253 259 176 219 217 195 174 196 198 179 176 169 167 164 162 161 161 161 157 154 151 148 141
228 234 235 236 236 239 241 236 238 242 242 241 237 239 241 245 259 265 261 244 218 234 245 262 210 216 214 179 191 198 188 183 174 171 171 170 167 166 164 164 163 154 147 148
231 234 233 235 236 234 233 235 237 239 239 240 241 245 245 249 253 251 254 250 235 233 239 249 220 209 215 194 198 202 195 191 186 182 180 178 176 173 173 175 176 175 169 159
233 233 232 232 234 232 233 234 235 237 236 239 238 242 251 248 244 242 249 247 243 238 227 216 233 217 212 204 212 204 201 195 196 192 186 187 189 185 183 181 184 182 171 166
231 236 234 233 235 233 236 237 236 238 238 236 238 238 248 244 239 239 239 241 244 238 225 229 238 229 219 212 206 218 208 205 202 199 196 195 196 194 194 189 188 180 178 175
229 229 231 234 234 233 231 231 230 232 229 227 231 234 246 240 236 239 241 240 240 234 228 227 222 229 235 211 205 219 213 209 207 206 206 203 202 199 198 195 193 192 188 192
226 224 226 226 227 230 231 232 229 225 224 223 228 231 241 244 243 236 234 235 237 230 225 227 227 233 237 210 205 213 220 214 209 206 211 208 204 200 199 200 198 198 205 212
225 223 227 227 225 225 227 227 229 231 229 226 229 234 239 245 245 233 233 229 229 228 225 230 231 233 228 212 207 202 219 217 213 210 208 207 204 203 205 204 205 208 217 228
221 220 224 225 227 226 226 229 230 229 226 225 229 230 234 239 239 236 226 233 227 228 225 223 227 230 227 207 210 202 214 218 214 214 210 210 210 208 210 210 213 219 225 227
217 215 221 224 223 226 227 224 225 227 230 229 229 228 232 236 234 233 236 231 233 232 229 222 224 230 228 214 215 213 209 218 217 215 213 211 212 213 213 219 224 229 231 232
212 211 217 218 220 222 224 227 227 225 226 224 222 230 232 229 228 229 226 218 228 232 225 225 222 226 226 221 215 217 208 214 217 216 215 214 214 215 219 223 228 234 243 246
209 209 214 216 218 221 221 223 226 229 228 228 227 227 223 225 226 227 225 222 216 231 226 220 221 224 224 223 217 217 208 213 216 217 217 217 218 218 222 227 232 236 244 255
205 206 211 214 216 219 218 219 223 223 226 228 227 226 225 226 225 225 224 222 218 218 229 223 219 223 223 224 221 217 209 209 217 220 221 220 222 223 224 230 236 241 246 254
200 204 207 210 214 215 217 216 220 221 218 225 227 226 225 226 225 222 224 221 220 218 221 224 219 221 223 225 223 217 211 208 215 221 225 226 228 230 232 236 238 241 246 250
198 200 205 207 212 210 213 213 214 217 216 219 224 222 223 223 225 225 224 223 224 222 224 224 224 221 223 223 223 221 215 209 212 219 223 227 231 233 236 239 242 247 252 253
199 197 204 206 208 208 209 212 211 215 218 217 222 222 219 219 220 223 224 225 231 227 220 225 224 221 221 224 224 224 227 224 221 222 225 229 233 236 239 244 248 252 255 256
195 197 202 205 206 205 208 211 209 213 218 219 222 223 221 221 224 223 225 227 227 229 222 221 222 224 223 222 223 222 222 225 227 227 227 229 231 235 238 242 249 254 256 256
195 196 200 203 204 204 206 209 209 209 213 218 223 224 223 221 221 222 225 227 228 230 229 224 223 221 221 222 222 225 225 226 230 232 232 233 235 238 241 241 243 246 249 253
194 194 199 202 204 203 206 209 212 210 210 214 221 225 225 225 225 223 228 223 229 231 228 228 224 221 222 223 223 221 224 226 227 229 231 231 233 236 238 240 241 245 251 253
193 195 198 202 204 203 203 212 212 213 212 216 224 229 223 219 226 224 224 217 224 229 227 227 224 222 222 224 225 227 228 229 231 234 235 237 240 244 244 241 243 246 251 257
191 193 197 200 204 203 203 209 216 212 214 216 220 226 224 217 220 222 221 213 221 227 225 220 219 218 218 220 223 225 226 229 232 234 234 235 236 237 240 242 244 247 251 255
190 193 197 200 201 205 205 206 216 212 214 219 220 223 219 218 220 219 218 217 213 225 227 225 219 214 213 218 221 224 227 230 232 234 235 237 240 241 243 244 246 249 252 256
193 191 195 201 203 205 208 209 212 223 213 218 219 222 219 219 218 219 219 216 220 217 223 225 225 220 213 215 217 223 228 231 234 236 238 240 240 241 243 246 249 252 254 256
196 194 196 201 203 206 209 209 214 210 224 217 217 218 219 217 219 216 215 212 218 225 215 217 219 223 223 221 225 227 227 227 232 234 236 239 242 245 246 247 249 251 252 251